Retour au catalogue

SPACEMOBILE-008

ActifCommunicationsVLEO
NORAD 69589·PAYLOAD·🇺🇸 United States

Lancé Jun 17, 2026 depuis Cape Canaveral Space Force Station

Loading…

Prochains Passages (prochaines 24 heures)

TLE

FraisSource: CelesTrak SupGP

Époque: Sep 14, 2026, 10:53 UTC

1 69589C 26139A   26257.45361111  .00004035  00000+0  22560-3 0  2578
2 69589  52.9938 217.2486 0002597 223.4130 112.3042 15.12973660    17

Suivez SPACEMOBILE-008 en temps réel avec AllMySat

Download on the App Store